小惑星ファエトン

(3200) Phaethon (2000)

English version
Home page
Updated on October 20, 2003

---------------------------------------------------------------------

・ プロフィール

・ 軌道要素

   The following improved orbital elements by Kenji Muraoka, are 
  from 116 observations 1983 to 1996, perturbations by 9 Plantes,
  Moon and 5 minor planets were taken into account. 
   The mean residual is +/- 0.91 arc seconds.

      Epoch  =  2000 Dec.  2.0  TT
          T  =  2000 Nov. 12.83998  TT
       Peri. =  321.96453
       Node  =  265.44612    (2000.0)
       Incl. =   22.16482
          q  =    0.1395970 AU
          e  =    0.8901855

・ 星図

・ 光度変化

        H = 14.3  G = 0.15

---------------------------------------------------------------------

軌道要素は村岡健治氏の計算によるものです。
星図は StellaNavigator Ver.2.0 for Windows (アストロアーツ 編著 / アスキー出版局刊) で作成したものです。
光度グラフはComet for Windowsで作成したものです。

---------------------------------------------------------------------

Copyright(C) Seiichi Yoshida (comet@aerith.net). All rights reserved.